FW2584 Weather Reports


Display with metric or nautical units.
time (UTC)temp
F
wind
direction
speed
MPH
gust
MPH
rain 1hr
in
rain 24hr
in
rain mn
in
humidity
%
barometer
mb
20260902185021 98 0 0.0 1.0 0.00 0.00 0.00 56 1016.7
20260902184543 98 0 0.0 4.0 0.00 0.00 0.00 55 1016.8
20260902184024 99 0 0.0 4.0 0.00 0.00 0.00 56 1016.8
20260902183524 98 0 0.0 1.0 0.00 0.00 0.00 53 1016.9
20260902183050 97 0 0.0 4.0 0.00 0.00 0.00 54 1016.9
20260902182523 97 0 0.0 5.0 0.00 0.00 0.00 54 1017.1
20260902182024 97 338 1.0 5.0 0.00 0.00 0.00 53 1017.1
20260902181543 96 360 0.0 5.0 0.00 0.00 0.00 59 1017.3
20260902181024 95 0 0.0 0.0 0.00 0.00 0.00 61 1017.3
20260902180523 94 0 0.0 0.0 0.00 0.00 0.00 64 1017.4
20260902180056 94 0 0.0 1.0 0.00 0.00 0.00 58 1017.4
20260902175525 95 0 0.0 1.0 0.00 0.00 0.00 62 1017.6
20260902175025 95 0 0.0 3.0 0.00 0.00 0.00 59 1017.6
20260902174541 96 0 0.0 5.0 0.00 0.00 0.00 62 1017.5
20260902174024 95 0 2.0 7.0 0.00 0.00 0.00 60 1017.6
20260902173525 95 352 0.0 7.0 0.00 0.00 0.00 61 1017.5
20260902173043 96 0 0.0 3.0 0.00 0.00 0.00 60 1017.7
20260902172524 96 0 0.0 4.0 0.00 0.00 0.00 58 1017.6
20260902172024 96 0 0.0 4.0 0.00 0.00 0.00 59 1017.6
20260902171540 96 266 0.0 6.0 0.00 0.00 0.00 60 1017.8
20260902171024 96 0 1.0 6.0 0.00 0.00 0.00 60 1017.7
20260902170524 96 0 0.0 1.0 0.00 0.00 0.00 61 1017.8
20260902170039 96 0 0.0 1.0 0.00 0.00 0.00 63 1017.9
20260902165524 96 0 0.0 1.0 0.00 0.00 0.00 62 1017.9
20260902165024 96 0 0.0 1.0 0.00 0.00 0.00 63 1018.0
20260902164552 95 0 0.0 1.0 0.00 0.00 0.00 64 1018.0
20260902164024 95 0 0.0 1.0 0.00 0.00 0.00 63 1018.0
20260902163524 94 0 0.0 1.0 0.00 0.00 0.00 66 1018.0
20260902163047 94 0 0.0 1.0 0.00 0.00 0.00 64 1018.1
20260902162521 94 0 0.0 1.0 0.00 0.00 0.00 63 1018.2
20260902162024 94 252 0.0 1.0 0.00 0.00 0.00 63 1018.2
20260902161553 94 0 0.0 1.0 0.00 0.00 0.00 64 1018.1
20260902161024 94 0 0.0 1.0 0.00 0.00 0.00 65 1018.3
20260902160524 94 0 0.0 1.0 0.00 0.00 0.00 66 1018.1
20260902160037 93 0 0.0 1.0 0.00 0.00 0.00 71 1018.2
20260902155523 93 0 0.0 1.0 0.00 0.00 0.00 71 1018.3
20260902155023 93 0 0.0 1.0 0.00 0.00 0.00 72 1018.2
20260902154558 92 0 0.0 1.0 0.00 0.00 0.00 72 1018.3
20260902154027 92 0 0.0 3.0 0.00 0.00 0.00 72 1018.3
20260902153524 91 0 0.0 3.0 0.00 0.00 0.00 72 1018.3
20260902153045 91 0 0.0 1.0 0.00 0.00 0.00 76 1018.3
20260902152524 91 0 0.0 1.0 0.00 0.00 0.00 75 1018.3
20260902152025 90 0 0.0 1.0 0.00 0.00 0.00 76 1018.4
20260902151545 89 0 0.0 1.0 0.00 0.00 0.00 77 1018.4
20260902151021 89 0 0.0 1.0 0.00 0.00 0.00 79 1018.4
20260902150528 88 0 0.0 1.0 0.00 0.00 0.00 81 1018.3
20260902150041 87 0 0.0 1.0 0.00 0.00 0.00 81 1018.4
20260902145524 86 0 0.0 1.0 0.00 0.00 0.00 81 1018.5
20260902145024 86 0 0.0 0.0 0.00 0.00 0.00 83 1018.5
20260902144547 86 0 0.0 0.0 0.00 0.00 0.00 83 1018.4
20260902144024 85 0 0.0 2.0 0.00 0.00 0.00 84 1018.5
20260902143526 85 0 0.0 2.0 0.00 0.00 0.00 84 1018.4
20260902143047 85 0 0.0 1.0 0.00 0.00 0.00 85 1018.3
20260902142524 84 0 0.0 1.0 0.00 0.00 0.00 84 1018.4
20260902142023 84 0 0.0 1.0 0.00 0.00 0.00 85 1018.4
20260902141542 84 0 0.0 1.0 0.00 0.00 0.00 86 1018.3
20260902141027 83 0 0.0 1.0 0.00 0.00 0.00 86 1018.3
20260902140521 83 0 0.0 1.0 0.00 0.00 0.00 87 1018.3
20260902140042 83 0 0.0 1.0 0.00 0.00 0.00 88 1018.3
20260902135523 82 0 0.0 1.0 0.00 0.00 0.00 89 1018.3
20260902135025 82 0 0.0 1.0 0.00 0.00 0.00 90 1018.3
20260902134539 81 0 0.0 1.0 0.00 0.00 0.00 90 1018.3
20260902134021 81 0 0.0 3.0 0.00 0.00 0.00 90 1018.3
20260902133526 81 0 0.0 3.0 0.00 0.00 0.00 91 1018.4
20260902133052 80 0 0.0 0.0 0.00 0.00 0.00 91 1018.3
20260902132530 80 0 0.0 0.0 0.00 0.00 0.00 92 1018.3
20260902132024 80 0 0.0 0.0 0.00 0.00 0.00 92 1018.4
20260902131545 79 0 0.0 0.0 0.00 0.00 0.00 93 1018.4
20260902131025 79 0 0.0 0.0 0.00 0.00 0.00 93 1018.4
20260902130520 79 0 0.0 0.0 0.00 0.00 0.00 94 1018.5
20260902130044 78 0 0.0 0.0 0.00 0.00 0.00 95 1018.6
20260902125526 78 0 0.0 0.0 0.00 0.00 0.00 95 1018.6
20260902125024 78 0 0.0 0.0 0.00 0.00 0.00 96 1018.7
20260902124541 78 0 0.0 0.0 0.00 0.00 0.00 97 1018.7
20260902124025 77 0 0.0 0.0 0.00 0.00 0.00 98 1018.7
20260902123524 76 0 0.0 0.0 0.00 0.00 0.00 99 1018.7
20260902123040 76 0 0.0 0.0 0.00 0.00 0.00 99 1018.6
20260902122528 76 0 0.0 0.0 0.00 0.00 0.00 99 1018.7
20260902122025 76 0 0.0 0.0 0.00 0.00 0.00 99 1018.7
20260902121544 75 0 0.0 0.0 0.00 0.00 0.00 99 1018.7
20260902121026 75 0 0.0 0.0 0.00 0.00 0.00 99 1018.8
20260902120525 75 0 0.0 0.0 0.00 0.00 0.00 99 1018.6
20260902120040 75 0 0.0 0.0 0.00 0.00 0.00 99 1018.6
20260902115524 75 0 0.0 0.0 0.00 0.00 0.00 99 1018.7
20260902115024 74 0 0.0 0.0 0.00 0.00 0.00 99 1018.6
20260902114541 74 0 0.0 0.0 0.00 0.00 0.00 99 1018.7
20260902114023 74 0 0.0 0.0 0.00 0.00 0.00 99 1018.6
20260902113523 74 0 0.0 0.0 0.00 0.00 0.00 99 1018.7
20260902113043 74 0 0.0 0.0 0.00 0.00 0.00 99 1018.8
20260902112523 74 0 0.0 0.0 0.00 0.00 0.00 99 1018.7
20260902112024 74 0 0.0 0.0 0.00 0.00 0.00 99 1018.6
20260902111540 74 0 0.0 0.0 0.00 0.00 0.00 99 1018.5
20260902111024 74 0 0.0 0.0 0.00 0.00 0.00 99 1018.5
20260902110522 74 0 0.0 0.0 0.00 0.00 0.00 99 1018.5
20260902110041 74 0 0.0 0.0 0.00 0.00 0.00 99 1018.3
20260902105523 74 0 0.0 0.0 0.00 0.00 0.00 99 1018.2
20260902105024 74 0 0.0 0.0 0.00 0.00 0.00 99 1018.1
20260902104545 74 0 0.0 0.0 0.00 0.00 0.00 99 1018.1
20260902104026 74 0 0.0 0.0 0.00 0.00 0.00 99 1018.1
20260902103523 74 0 0.0 0.0 0.00 0.00 0.00 99 1018.1
20260902103045 74 0 0.0 0.0 0.00 0.00 0.00 98 1018.1
20260902102521 74 0 0.0 0.0 0.00 0.00 0.00 98 1018.1
20260902102025 74 0 0.0 0.0 0.00 0.00 0.00 98 1018.1
20260902101545 74 0 0.0 0.0 0.00 0.00 0.00 99 1018.1
20260902101026 74 0 0.0 0.0 0.00 0.00 0.00 98 1018.1
20260902100524 74 0 0.0 0.0 0.00 0.00 0.00 98 1018.0
20260902100041 74 0 0.0 0.0 0.00 0.00 0.00 99 1018.0
20260902095524 74 0 0.0 0.0 0.00 0.00 0.00 99 1018.0
20260902095023 74 0 0.0 0.0 0.00 0.00 0.00 98 1018.1
20260902094541 74 0 0.0 0.0 0.00 0.00 0.00 98 1018.1
20260902094024 74 0 0.0 0.0 0.00 0.00 0.00 98 1018.1
20260902093525 74 0 0.0 0.0 0.00 0.00 0.00 98 1018.0
20260902093055 74 0 0.0 0.0 0.00 0.00 0.00 98 1018.0
20260902092524 74 0 0.0 0.0 0.00 0.00 0.00 98 1018.0
20260902092024 74 0 0.0 0.0 0.00 0.00 0.00 98 1018.0
20260902091547 74 0 0.0 0.0 0.00 0.00 0.00 98 1017.8
20260902091025 74 0 0.0 0.0 0.00 0.00 0.00 98 1017.8
20260902090526 74 0 0.0 0.0 0.00 0.00 0.00 98 1017.6
20260902090048 74 0 0.0 0.0 0.00 0.00 0.00 98 1017.7
20260902085528 74 0 0.0 0.0 0.00 0.00 0.00 98 1017.7
20260902085028 75 0 0.0 0.0 0.00 0.00 0.00 98 1017.8
20260902084553 75 0 0.0 0.0 0.00 0.00 0.00 98 1017.7
20260902084025 75 0 0.0 0.0 0.00 0.00 0.00 98 1017.8
20260902083527 75 0 0.0 0.0 0.00 0.00 0.00 98 1017.8
20260902083049 75 0 0.0 0.0 0.00 0.00 0.00 98 1017.7
20260902082525 75 0 0.0 0.0 0.00 0.00 0.00 98 1017.6
20260902082024 75 0 0.0 0.0 0.00 0.00 0.00 98 1017.6
20260902081552 75 0 0.0 0.0 0.00 0.00 0.00 98 1017.6
20260902081024 75 0 0.0 0.0 0.00 0.00 0.00 98 1017.6
20260902080525 75 0 0.0 0.0 0.00 0.00 0.00 98 1017.6
20260902080044 75 0 0.0 0.0 0.00 0.00 0.00 98 1017.7
20260902075524 75 0 0.0 0.0 0.00 0.00 0.00 98 1017.7
20260902075023 75 0 0.0 0.0 0.00 0.00 0.00 98 1017.5
20260902074540 75 0 0.0 0.0 0.00 0.00 0.00 98 1017.6
20260902074024 75 0 0.0 0.0 0.00 0.00 0.00 98 1017.7
20260902073524 75 0 0.0 0.0 0.00 0.00 0.00 97 1017.7
20260902073043 76 0 0.0 0.0 0.00 0.00 0.00 97 1017.7
20260902072524 76 0 0.0 0.0 0.00 0.00 0.00 97 1017.7
20260902072024 76 0 0.0 0.0 0.00 0.00 0.00 97 1017.6
20260902071551 76 0 0.0 0.0 0.00 0.00 0.00 97 1017.7
20260902071024 76 0 0.0 0.0 0.00 0.00 0.00 97 1017.8
20260902070524 76 0 0.0 0.0 0.00 0.00 0.00 97 1017.8
20260902070043 76 0 0.0 0.0 0.00 0.00 0.00 97 1017.9
20260902065525 76 0 0.0 0.0 0.00 0.00 0.00 97 1017.9
20260902065024 76 0 0.0 0.0 0.00 0.00 0.00 97 1017.8
20260902064540 76 0 0.0 0.0 0.00 0.00 0.00 97 1017.9
20260902064024 76 0 0.0 0.0 0.00 0.00 0.00 97 1017.8
20260902063525 76 0 0.0 0.0 0.00 0.00 0.00 97 1017.9
20260902063046 76 0 0.0 0.0 0.00 0.00 0.00 97 1018.0
20260902062525 76 0 0.0 0.0 0.00 0.00 0.00 97 1018.0
20260902062027 77 0 0.0 0.0 0.00 0.00 0.00 96 1018.0
20260902061549 77 0 0.0 0.0 0.00 0.00 0.00 96 1018.0
20260902061023 77 0 0.0 0.0 0.00 0.00 0.00 96 1017.9
20260902060523 77 0 0.0 0.0 0.00 0.00 0.00 96 1017.9
20260902060042 77 0 0.0 0.0 0.00 0.00 0.00 96 1017.9
20260902055525 77 0 0.0 0.0 0.00 0.00 0.00 96 1017.9
20260902055025 77 0 0.0 0.0 0.00 0.00 0.00 95 1017.9
20260902054540 77 0 0.0 0.0 0.00 0.00 0.00 95 1017.9
20260902054024 77 0 0.0 0.0 0.00 0.00 0.00 95 1017.8
20260902053526 77 0 0.0 0.0 0.00 0.00 0.00 95 1017.8
20260902053041 77 0 0.0 0.0 0.00 0.00 0.00 95 1017.8
20260902052527 78 0 0.0 0.0 0.00 0.00 0.00 95 1017.8
20260902052021 78 0 0.0 0.0 0.00 0.00 0.00 95 1017.6
20260902051546 78 0 0.0 0.0 0.00 0.00 0.00 95 1017.7
20260902051024 78 0 0.0 0.0 0.00 0.00 0.00 95 1017.7
20260902050527 78 0 0.0 0.0 0.00 0.00 0.00 95 1017.6
20260902045525 78 0 0.0 0.0 0.00 0.00 0.00 94 1017.8
20260902045025 78 0 0.0 0.0 0.00 0.00 0.00 94 1017.8
20260902044604 78 0 0.0 0.0 0.00 0.00 0.00 94 1017.8
20260902044024 78 0 0.0 0.0 0.00 0.00 0.00 94 1017.8
20260902043520 78 0 0.0 0.0 0.00 0.00 0.00 94 1017.6
20260902043041 78 0 0.0 0.0 0.00 0.00 0.00 94 1017.6
20260902042524 79 0 0.0 0.0 0.00 0.00 0.00 94 1017.6
20260902042024 79 0 0.0 0.0 0.00 0.00 0.00 93 1017.3
20260902041540 79 0 0.0 0.0 0.00 0.00 0.00 93 1017.3
20260902041030 79 0 0.0 0.0 0.00 0.00 0.00 93 1017.3
20260902040524 79 0 0.0 0.0 0.00 0.00 0.00 93 1017.3
20260902040114 79 0 0.0 0.0 0.00 0.00 0.00 93 1017.2
20260902035520 79 0 0.0 0.0 0.00 0.00 0.00 92 1017.3
20260902035027 79 0 0.0 0.0 0.00 0.00 0.00 92 1017.3
20260902034553 79 0 0.0 0.0 0.00 0.00 0.00 92 1017.3
20260902034024 80 0 0.0 0.0 0.00 0.00 0.00 92 1017.4
20260902033525 80 0 0.0 0.0 0.00 0.00 0.00 92 1017.4
20260902033043 80 0 0.0 0.0 0.00 0.00 0.00 92 1017.3
20260902032524 80 0 0.0 0.0 0.00 0.00 0.00 91 1017.3
20260902032024 80 0 0.0 0.0 0.00 0.00 0.00 91 1017.4
20260902031540 80 0 0.0 0.0 0.00 0.00 0.00 91 1017.4
20260902031023 80 0 0.0 0.0 0.00 0.00 0.00 91 1017.5
20260902030524 80 0 0.0 0.0 0.00 0.00 0.00 91 1017.4
20260902030044 80 0 0.0 0.0 0.00 0.00 0.00 90 1017.4
20260902025521 81 0 0.0 0.0 0.00 0.00 0.00 90 1017.5
20260902025025 81 0 0.0 0.0 0.00 0.00 0.00 90 1017.4
20260902024552 81 0 0.0 0.0 0.00 0.00 0.00 90 1017.4
20260902024024 81 0 0.0 0.0 0.00 0.00 0.00 89 1017.3
20260902023523 81 0 0.0 0.0 0.00 0.00 0.00 89 1017.4
20260902023044 81 0 0.0 0.0 0.00 0.00 0.00 89 1017.2
20260902022525 81 0 0.0 0.0 0.00 0.00 0.00 89 1017.3
20260902022029 81 0 0.0 0.0 0.00 0.00 0.00 89 1017.2
20260902021548 81 0 0.0 0.0 0.00 0.00 0.00 89 1017.2
20260902021027 81 0 0.0 0.0 0.00 0.00 0.00 89 1017.3
20260902020525 81 0 0.0 0.0 0.00 0.00 0.00 89 1017.1
20260902020039 81 0 0.0 0.0 0.00 0.00 0.00 89 1017.0
20260902015525 81 0 0.0 0.0 0.00 0.00 0.00 90 1016.9
20260902015026 81 0 0.0 0.0 0.00 0.00 0.00 90 1016.9
20260902014543 81 0 0.0 0.0 0.00 0.00 0.00 89 1016.7
20260902014026 81 0 0.0 0.0 0.00 0.00 0.00 90 1016.6
20260902013525 81 0 0.0 0.0 0.00 0.00 0.00 90 1016.7
20260902013039 81 0 0.0 0.0 0.00 0.00 0.00 90 1016.6
20260902012524 81 0 0.0 0.0 0.00 0.00 0.00 90 1016.6
20260902012023 82 0 0.0 0.0 0.00 0.00 0.00 91 1016.5
20260902011539 82 0 0.0 0.0 0.00 0.00 0.00 90 1016.5
20260902011023 82 0 0.0 0.0 0.00 0.00 0.00 89 1016.6
20260902010524 82 0 0.0 0.0 0.00 0.00 0.00 89 1016.6
20260902010044 82 0 0.0 0.0 0.00 0.00 0.00 88 1016.5
20260902005524 82 0 0.0 0.0 0.00 0.00 0.00 89 1016.4
20260902005024 82 0 0.0 0.0 0.00 0.00 0.00 88 1016.4
20260902004544 83 0 0.0 0.0 0.00 0.00 0.00 87 1016.3
20260902004024 83 0 0.0 0.0 0.00 0.00 0.00 87 1016.2
20260902003525 83 0 0.0 0.0 0.00 0.00 0.00 87 1016.2
20260902003043 83 0 0.0 0.0 0.00 0.00 0.00 87 1016.2
20260902002523 83 0 0.0 0.0 0.00 0.00 0.00 85 1016.2
20260902002024 84 0 0.0 0.0 0.00 0.00 0.00 84 1016.1
20260902001541 84 0 0.0 0.0 0.00 0.00 0.00 83 1016.2
20260902001025 84 0 0.0 0.0 0.00 0.00 0.00 83 1016.2
20260902000528 84 0 0.0 0.0 0.00 0.00 0.00 82 1016.2
20260902000038 85 0 0.0 0.0 0.00 0.00 0.00 81 1016.2
20260901235524 85 0 0.0 0.0 0.00 0.00 0.00 82 1016.2
20260901235024 85 0 0.0 0.0 0.00 0.00 0.00 82 1016.2
20260901234544 86 0 0.0 0.0 0.00 0.00 0.00 81 1016.3
20260901234024 86 0 0.0 0.0 0.00 0.00 0.00 79 1016.3
20260901233525 87 0 0.0 0.0 0.00 0.00 0.00 78 1016.3
20260901233042 87 0 0.0 0.0 0.00 0.00 0.00 75 1016.3
20260901232524 87 0 0.0 0.0 0.00 0.00 0.00 75 1016.3
20260901232025 88 0 0.0 0.0 0.00 0.00 0.00 74 1016.3
20260901231541 88 0 0.0 0.0 0.00 0.00 0.00 73 1016.3
20260901231025 89 0 0.0 0.0 0.00 0.00 0.00 73 1016.2
20260901230525 89 0 0.0 0.0 0.00 0.00 0.00 72 1016.2
20260901230040 89 0 0.0 0.0 0.00 0.00 0.00 71 1016.3
20260901225524 90 0 0.0 0.0 0.00 0.00 0.00 73 1016.3
20260901225024 90 0 0.0 0.0 0.00 0.00 0.00 69 1016.3
20260901224540 91 0 0.0 0.0 0.00 0.00 0.00 69 1016.2
20260901224025 91 0 0.0 0.0 0.00 0.00 0.00 69 1016.1
20260901223521 91 0 0.0 0.0 0.00 0.00 0.00 68 1016.1
20260901223047 91 0 0.0 1.0 0.00 0.00 0.00 67 1016.1
20260901222523 91 0 0.0 1.0 0.00 0.00 0.00 65 1016.2
20260901222026 92 0 0.0 0.0 0.00 0.00 0.00 65 1016.2
20260901221543 92 0 0.0 0.0 0.00 0.00 0.00 65 1016.2
20260901221024 93 0 0.0 0.0 0.00 0.00 0.00 62 1016.1
20260901220524 93 0 0.0 0.0 0.00 0.00 0.00 60 1016.2
20260901220039 93 0 0.0 0.0 0.00 0.00 0.00 62 1016.1
20260901215529 93 0 0.0 0.0 0.00 0.00 0.00 61 1016.2
20260901215025 94 0 0.0 0.0 0.00 0.00 0.00 59 1016.2
20260901214543 95 0 0.0 1.0 0.00 0.00 0.00 57 1016.2
20260901214023 95 0 0.0 1.0 0.00 0.00 0.00 56 1016.2
20260901213524 95 290 0.0 0.0 0.00 0.00 0.00 55 1016.1
20260901213102 96 0 0.0 1.0 0.00 0.00 0.00 57 1016.2
20260901212524 96 0 0.0 1.0 0.00 0.00 0.00 54 1016.2
20260901212024 95 0 0.0 1.0 0.00 0.00 0.00 55 1016.3
20260901211543 95 0 0.0 1.0 0.00 0.00 0.00 57 1016.2
20260901211026 96 0 0.0 4.0 0.00 0.00 0.00 56 1016.2
20260901210527 96 0 0.0 4.0 0.00 0.00 0.00 54 1016.2
20260901210042 96 0 0.0 4.0 0.00 0.00 0.00 54 1016.1
20260901205525 96 0 0.0 4.0 0.00 0.00 0.00 56 1016.2
20260901205025 96 0 0.0 1.0 0.00 0.00 0.00 57 1016.2
20260901204546 96 331 0.0 1.0 0.00 0.00 0.00 59 1016.3
20260901204024 95 0 0.0 0.0 0.00 0.00 0.00 58 1016.4
20260901203521 95 0 0.0 5.0 0.00 0.00 0.00 56 1016.4
20260901203040 96 0 0.0 8.0 0.00 0.00 0.00 54 1016.5
20260901202524 96 0 0.0 8.0 0.00 0.00 0.00 52 1016.5
20260901202026 96 0 0.0 4.0 0.00 0.00 0.00 55 1016.5
20260901201542 96 0 0.0 4.0 0.00 0.00 0.00 51 1016.5
20260901201025 96 0 0.0 4.0 0.00 0.00 0.00 51 1016.6
20260901200525 96 0 0.0 5.0 0.00 0.00 0.00 52 1016.6
20260901200042 96 0 0.0 6.0 0.00 0.00 0.00 56 1016.6
20260901195524 96 290 0.0 6.0 0.00 0.00 0.00 54 1016.8
20260901195024 96 325 0.0 5.0 0.00 0.00 0.00 56 1016.7
20260901194541 96 0 0.0 1.0 0.00 0.00 0.00 59 1016.7
20260901194021 96 0 0.0 5.0 0.00 0.00 0.00 58 1016.6
20260901193525 96 0 0.0 5.0 0.00 0.00 0.00 54 1016.8
20260901193043 96 35 0.0 7.0 0.00 0.00 0.00 55 1016.8
20260901192523 96 0 0.0 7.0 0.00 0.00 0.00 53 1016.8
20260901192023 96 0 0.0 5.0 0.00 0.00 0.00 54 1016.9
20260901191541 96 0 0.0 1.0 0.00 0.00 0.00 55 1017.0
20260901191027 96 0 0.0 5.0 0.00 0.00 0.00 56 1017.1
20260901190524 95 0 1.0 5.0 0.00 0.00 0.00 54 1017.2
20260901190045 96 29 0.0 6.0 0.00 0.00 0.00 55 1017.3
20260901185524 96 0 1.0 6.0 0.00 0.00 0.00 56 1017.3